Le nostre stazioni meteo in Italia

Pubblicità
Il mio iltempo24.it
Dalwhinnie, Gran Bretagna (99005): Temperatura & dewpoint: 13.04.2019 16:00:00 - 19.04.2019 16:00:00 (BST)Dalwhinnie, Gran Bretagna (99005): precipitazioni: 13.04.2019 16:00:00 - 19.04.2019 16:00:00 (BST)
Data & Tempo tt [°C] td [°C] rr [mm]
19.04.2019 16:00:00 18,5 3,2 0,0
19.04.2019 15:00:00 18,0 1,9 0,0
19.04.2019 14:00:00 18,1 1,9 0,0
19.04.2019 13:00:00 16,7 2,5 0,0
19.04.2019 12:00:00 15,6 5,5 0,0
19.04.2019 11:00:00 13,8 5,3 0,0
19.04.2019 10:00:00 11,6 4,5 0,0
19.04.2019 09:00:00 8,9 4,5 0,0
19.04.2019 08:00:00 8,0 4,0 0,0
19.04.2019 07:00:00 7,5 3,0 0,0
19.04.2019 06:00:00 7,0 3,3 0,0
19.04.2019 05:00:00 6,4 3,1 0,0
19.04.2019 04:00:00 7,5 3,2 0,0
19.04.2019 03:00:00 5,0 2,6 0,0
19.04.2019 02:00:00 5,1 2,1 0,0
19.04.2019 01:00:00 5,9 2,2 0,0
19.04.2019 00:00:00 6,3 1,7 0,0
18.04.2019 23:00:00 7,1 2,6 0,0
18.04.2019 22:00:00 9,1 3,3 0,0
18.04.2019 21:00:00 10,7 3,7 0,0
18.04.2019 20:00:00 11,9 3,2 0,0
18.04.2019 19:00:00 12,9 3,3 0,0
18.04.2019 18:00:00 14,5 3,3 0,0
18.04.2019 17:00:00 15,3 3,8 0,0
18.04.2019 16:00:00 15,0 5,1 0,0
18.04.2019 15:00:00 15,4 5,7 0,0
18.04.2019 14:00:00 14,3 5,6 0,0
18.04.2019 13:00:00 13,9 4,3 0,0
18.04.2019 12:00:00 13,9 1,6 0,0
18.04.2019 11:00:00 12,3 1,8 0,0
18.04.2019 10:00:00 10,5 2,7 0,0
18.04.2019 09:00:00 8,4 4,2 0,0
18.04.2019 08:00:00 7,6 4,1 0,0
18.04.2019 07:00:00 6,3 2,5 0,0
18.04.2019 06:00:00 6,4 1,9 0,0
18.04.2019 05:00:00 4,6 -0,6 0,0
18.04.2019 04:00:00 5,9 -0,4 0,0
18.04.2019 03:00:00 4,2 -1,7 0,0
18.04.2019 02:00:00 3,7 -1,6 0,0
18.04.2019 01:00:00 6,8 -1,6 0,0
18.04.2019 00:00:00 6,0 -1,4 0,0
17.04.2019 23:00:00 7,3 -1,4 0,0
17.04.2019 22:00:00 6,8 -0,6 0,0
17.04.2019 21:00:00 7,2 0,1 0,0
17.04.2019 20:00:00 8,2 0,3 0,0
17.04.2019 19:00:00 10,0 0,4 0,0
17.04.2019 18:00:00 10,8 1,0 0,0
17.04.2019 17:00:00 11,7 1,3 0,0
17.04.2019 16:00:00 12,0 1,1 0,0
17.04.2019 15:00:00 11,3 -0,6 0,0
17.04.2019 14:00:00 11,2 1,3 0,0
17.04.2019 13:00:00 9,3 0,9 0,0
17.04.2019 12:00:00 8,9 1,8 0,0
17.04.2019 11:00:00 6,6 0,5 0,0
17.04.2019 10:00:00 5,6 1,3 0,0
17.04.2019 09:00:00 4,3 0,5 0,0
17.04.2019 08:00:00 4,0 0,5 0,0
17.04.2019 07:00:00 3,7 0,7 0,0
17.04.2019 06:00:00 3,9 0,8 0,0
17.04.2019 05:00:00 3,8 0,9 0,0
17.04.2019 04:00:00 3,8 1,0 0,0
17.04.2019 03:00:00 3,9 1,2 0,0
17.04.2019 02:00:00 3,9 1,5 0,0
17.04.2019 01:00:00 4,1 1,8 0,0
17.04.2019 00:00:00 4,2 1,8 0,2
16.04.2019 23:00:00 4,4 2,4 0,0
16.04.2019 22:00:00 4,8 2,1 0,0
16.04.2019 21:00:00 5,2 2,1 0,0
16.04.2019 20:00:00 5,0 2,6 0,0
16.04.2019 19:00:00 5,5 2,4 0,0
16.04.2019 18:00:00 6,1 2,1 0,0
16.04.2019 17:00:00 6,7 2,6 0,0
16.04.2019 16:00:00 6,7 2,7 0,0
16.04.2019 15:00:00 6,5 3,1 0,0
16.04.2019 14:00:00 6,3 2,8 0,0
16.04.2019 13:00:00 6,4 3,4 0,0
16.04.2019 12:00:00 6,1 3,8 0,0
16.04.2019 11:00:00 5,4 4,1 0,0
16.04.2019 10:00:00 5,0 3,9 0,0
16.04.2019 09:00:00 4,9 3,8 0,0
16.04.2019 08:00:00 4,9 3,7 0,0
16.04.2019 07:00:00 4,7 3,4 0,0
16.04.2019 06:00:00 4,6 3,2 0,0
16.04.2019 05:00:00 4,5 3,3 0,0
16.04.2019 04:00:00 4,6 3,0 0,0
16.04.2019 03:00:00 4,7 2,7 0,0
16.04.2019 02:00:00 5,0 2,3 0,0
16.04.2019 01:00:00 5,1 1,5 0,0
16.04.2019 00:00:00 4,8 1,8 0,0
15.04.2019 23:00:00 4,4 2,5 0,0
15.04.2019 22:00:00 4,5 2,4 0,0
15.04.2019 21:00:00 5,1 1,9 0,0
15.04.2019 20:00:00 5,5 0,9 0,0
15.04.2019 19:00:00 5,5 1,4 0,0
15.04.2019 18:00:00 5,9 1,2 0,0
15.04.2019 17:00:00 6,3 0,5 0,0
15.04.2019 16:00:00 6,2 -0,2 0,0
15.04.2019 15:00:00 6,8 -1,4 0,0
15.04.2019 14:00:00 7,1 -2,8 0,0
15.04.2019 13:00:00 6,6 -3,4 0,0
15.04.2019 12:00:00 6,1 -1,6 0,0
15.04.2019 11:00:00 4,6 -1,2 0,0
15.04.2019 10:00:00 3,4 -1,7 0,0
15.04.2019 09:00:00 2,9 -1,2 0,0
15.04.2019 08:00:00 1,9 -1,7 0,0
15.04.2019 07:00:00 1,6 -1,8 0,0
15.04.2019 06:00:00 1,7 -1,8 0,0
15.04.2019 05:00:00 1,9 -1,9 0,0
15.04.2019 04:00:00 2,3 -1,9 0,0
15.04.2019 03:00:00 2,5 -1,0 0,0
15.04.2019 02:00:00 2,6 -1,4 0,0
15.04.2019 01:00:00 2,9 -0,7 0,0
15.04.2019 00:00:00 2,9 -1,3 0,0
14.04.2019 23:00:00 2,9 -0,9 0,0
14.04.2019 22:00:00 3,0 -1,2 0,0
14.04.2019 21:00:00 3,1 -1,9 0,0
14.04.2019 20:00:00 3,7 -2,1 0,0
14.04.2019 19:00:00 4,4 -2,0 0,0
14.04.2019 18:00:00 4,8 -2,5 0,0
14.04.2019 17:00:00 5,1 -1,7 0,0
14.04.2019 16:00:00 5,6 -2,9 0,0
14.04.2019 15:00:00 5,7 -2,7 0,0
14.04.2019 14:00:00 5,5 -1,8 0,0
14.04.2019 13:00:00 5,5 -1,4 0,0
14.04.2019 12:00:00 5,7 -3,3 0,0
14.04.2019 11:00:00 4,9 -4,1 0,0
14.04.2019 10:00:00 4,3 -3,8 0,0
14.04.2019 09:00:00 2,6 -2,1 0,0
14.04.2019 08:00:00 2,4 -2,9 0,0
14.04.2019 07:00:00 2,0 -3,1 0,0
14.04.2019 06:00:00 1,8 -3,1 0,0
14.04.2019 05:00:00 1,6 -3,1 0,0
14.04.2019 04:00:00 1,7 -3,1 0,0
14.04.2019 03:00:00 1,7 -3,1 0,0
14.04.2019 02:00:00 1,5 -3,6 0,0
14.04.2019 01:00:00 1,5 -4,0 0,0
14.04.2019 00:00:00 1,5 -3,4 0,0
13.04.2019 23:00:00 1,8 -2,8 0,0
13.04.2019 22:00:00 1,9 -3,0 0,0
13.04.2019 21:00:00 2,5 -2,9 0,0
13.04.2019 20:00:00 3,1 -3,4 0,0
13.04.2019 19:00:00 4,1 -3,3 0,0
13.04.2019 18:00:00 5,2 -4,2 0,0
13.04.2019 17:00:00 5,9 -4,2 0,0
13.04.2019 16:00:00 5,2 -3,9 0,0

tt = Temperatura
td = dewpoint
rr = precipitazioni

Stazioni seguenti

WeatherPro
AMSI
MeteoEarth